XSAT

Satellite information

Favourite Embed

Satellite Type and Status

PAYLOADIN ORBIT

Key statistics

Satellite XSAT at a glance.

Uptime

5136

Days in orbit

Revolutions

≈ 14.3

Per day

Orbit

SSO

Sun Synchronous Orbit

Inclination

98.3

Latest

Satellite identification and parameters

Extended collection of information and parameters for XSAT.

Object identification

Identified? True

Debris? False

Object name: XSAT

International designator: 2011-015C

Object number (NORAD): 37389

Object ID (CCSDS): 37389

Country: SINGAPORE (SING)

Current information (Y/N): Y

RCS size: MEDIUM

Orbital parameters

Period: 101.05 minutes

Inclination: 98.3111 deg

SMA: 7186.526 km

Apoapsis: 819.441 km

Periapsis: 797.342 km

RAAN: 124.1328 deg

Eccentricy: 0.0015375

Argument of periapsis: 82.2363 deg

Mean anomaly: 278.0563 deg

Mean motion: 14.25030726 rev/day

Mean motion (dot): 0.00000148 rev/day2

B* drag term: 0.000080421 1/REarth

Two-line elements (TLE)

Creation date: May 11, 2025, 10:46 p.m.

Reference frame: TEME

Reference center: EARTH

Epoch: May 11, 2025, 9:45 p.m. UTC

TLE line 0: 0 XSAT

TLE line 1: 1 37389U 11015C 25131.90643401 .00000148 00000-0 80421-4 0 9999

TLE line 2: 2 37389 98.3111 124.1328 0015375 82.2363 278.0563 14.25030726731047

Live tracking on map

Real-time ground track for satellite XSAT.

In-orbit conjunctions

There are no conjunctions computed for XSAT, at the moment. Check back to stay up to date, as we update our databases every day.

Go to all conjunctions

Associated space launch

XSAT was lifted into orbit during the mission ‘PSLV | Resourcesat-2’, on board a PSLV space rocket.

The launch took place on April 20, 2011, 4:42 a.m. from Satish Dhawan Space Centre First Launch Pad.

For more information about the launch, click the button.

Launch to space PSLV | Resourcesat-2
PSLV | Resourcesat-2

Agency: N/A

Status: Launch Successful

Launch date: April 20, 2011, 4:42 a.m. UTC

Rocket: PSLV

Launch pad: Satish Dhawan Space Centre First Launch Pad

Location: Satish Dhawan Space Centre, India

...

Latest news about this satellite

There are no fresh news available about this satellite. Check back as we update our databases every day.


Newsletter sign-up

Weekly statistics, charts and insights to help you stay on top of the space industry.